[[{"header":{"parameterUnit":"m.s-1","parameterCategory":1,"la1":30.2991,"la2":30.254,"lo1":-89.0895,"lo2":-89.0444,"dy":0.0017,"dx":0.0017,"nx":28,"ny":28,"refTime":"2023-11-21T03:00:00:Z","depth":0,"parameterNumber":2,"parameterNumberName":"U-component_of_WINDS"},"data":[0,0,0,0,0,0,0,0,0,0,0,0,0,0,0,0,0,0,0,0,0,0,0,0,0,0,0,0,0,0,0,0,0,0,0,0,0,0,0,0,0,0,0,0,0,0,0,0,0,0,0,0,0,0,0,0,0,0,-3.6026,-3.6027,0,-3.6078,-3.6079,-3.608,-3.6081,-3.608,-3.6079,-3.6079,-3.6132,-3.6134,-3.6136,0,0,0,0,0,0,0,0,0,0,0,0,0,-3.5928,-3.593,-3.6026,-3.6027,-3.6028,-3.6078,-3.6079,-3.608,-3.6081,-3.608,-3.6079,-3.6078,-3.6131,-3.6134,-3.6136,0,0,0,0,0,0,0,0,0,0,0,0,0,-3.5974,-3.593,-3.6026,-3.6034,-3.6035,-3.6078,-3.6079,-3.608,-3.6081,-3.608,-3.6079,-3.6078,-3.6131,-3.6134,-3.6137,-3.6175,0,0,-3.6146,-3.6147,0,0,0,0,0,0,0,0,-3.5972,-3.5978,-3.6032,-3.6034,-3.6035,-3.6072,-3.6064,-3.6112,-3.6081,-3.6064,-3.6079,-3.6077,-3.6113,-3.6117,-3.6129,-3.6178,-3.618,-3.6146,-3.6148,-3.6149,-3.615,0,0,0,0,0,0,0,-3.5969,-3.5976,-3.6047,-3.6033,-3.6035,-3.6035,-3.6041,-3.6073,-3.6093,-3.6065,-3.6065,-3.6071,-3.6113,-3.6126,-3.6131,-3.6181,-3.6146,-3.6149,-3.6151,-3.6152,-3.6262,-3.6263,0,0,0,0,0,0,-3.5964,-3.5973,-3.6045,-3.6048,-3.6,-3.6038,-3.6044,-3.6061,-3.6093,-3.6097,-3.6072,-3.6071,-3.6122,-3.6127,-3.6132,-3.6178,-3.6149,-3.6152,-3.6154,-3.6261,-3.6263,-3.6264,0,0,0,0,0,0,-3.5962,-3.597,-3.6043,-3.6011,-3.602,-3.6041,-3.606,-3.6063,-3.6075,-3.6098,-3.6102,-3.6082,-3.6121,-3.6128,-3.6164,-3.618,-3.6154,-3.6156,-3.626,-3.6262,-3.6263,-3.6271,0,0,0,0,0,0,-3.5959,-3.5969,-3.5984,-3.6011,-3.6022,-3.6074,-3.6061,-3.6064,-3.6081,-3.608,-3.6108,-3.6112,-3.6121,-3.616,-3.6167,-3.6184,-3.6159,-3.6259,-3.6261,-3.6263,-3.627,-3.6273,-3.6276,0,0,0,0,0,-3.5955,-3.5984,-3.5985,-3.5993,-3.6041,-3.6075,-3.6081,-3.6091,-3.6082,-3.6097,-3.6111,-3.6111,-3.6178,-3.6163,-3.6172,-3.619,-3.6258,-3.626,-3.6263,-3.6268,-3.6272,-3.6276,0,0,0,0,0,0,-3.5959,-3.5988,-3.5989,-3.6028,-3.6049,-3.6075,-3.6094,-3.6095,-3.6119,-3.6118,-3.6129,-3.6136,-3.6171,-3.6185,-3.6168,-3.6229,-3.6217,-3.6221,-3.6218,-3.6222,-3.6225,-3.6221,-3.6161,0,0,0,0,0,-3.5964,-3.5989,-3.6014,-3.6046,-3.6056,-3.6073,-3.6089,-3.6095,-3.6117,-3.6126,-3.6143,-3.6165,-3.6191,-3.6208,-3.6233,-3.6272,-3.6278,-3.6289,-3.6292,-3.6295,-3.6298,-3.6319,-3.6324,-3.6272,-3.6272,-3.6272,0,0,-3.5975,-3.5994,-3.6009,-3.6047,-3.6064,-3.6089,-3.6081,-3.6109,-3.6128,-3.613,-3.6165,-3.6178,-3.6204,-3.6241,-3.6259,-3.6253,-3.6314,-3.6298,-3.63,-3.6301,-3.6322,-3.6327,-3.6331,-3.6274,-3.6273,-3.6273,0,0,-3.6008,-3.6026,-3.6053,-3.6071,-3.6097,-3.6108,-3.6115,-3.6141,-3.615,-3.6185,-3.6187,-3.6211,-3.6255,-3.6273,-3.6288,-3.6328,-3.6328,-3.6336,-3.6352,-3.6372,-3.6376,-3.638,-3.6393,-3.6397,-3.6339,-3.6339,-3.6339,0,-3.6018,-3.6057,-3.6068,-3.6095,-3.6111,-3.6115,-3.6143,-3.616,-3.6193,-3.6204,-3.6198,-3.6254,-3.6271,-3.6312,-3.6322,-3.6334,-3.6342,-3.6332,-3.6375,-3.6378,-3.6382,-3.6395,-3.64,-3.634,-3.634,-3.634,-3.634,0,-3.6068,-3.6094,-3.6114,-3.6145,-3.6164,-3.6192,-3.6207,-3.6225,-3.6229,-3.6241,-3.6277,-3.6298,-3.6327,-3.6338,-3.6343,-3.638,-3.6376,-3.6372,-3.636,-3.6387,-3.6399,-3.6404,-3.6341,-3.6341,-3.6341,-3.634,0,0,-3.6102,-3.614,-3.6147,-3.6161,-3.619,-3.6211,-3.6239,-3.6268,-3.6282,-3.6305,-3.6328,-3.6366,-3.6363,-3.638,-3.6387,-3.6405,-3.6434,-3.6399,-3.64,-3.6404,-3.6475,-3.6477,-3.6482,-3.6435,-3.6436,-3.6437,-3.6473,0,-3.6137,-3.6187,-3.6198,-3.624,-3.6265,-3.6269,-3.6294,-3.6314,-3.6327,-3.6349,-3.6363,-3.6389,-3.6384,-3.6394,-3.6412,-3.6427,-3.6449,-3.6425,-3.6456,-3.6457,-3.6448,-3.6489,-3.649,-3.6523,-3.6478,-3.6479,-3.6479,0,-3.6184,-3.6207,-3.6252,-3.6278,-3.6289,-3.631,-3.6337,-3.6359,-3.6383,-3.639,-3.6409,-3.6415,-3.6444,-3.6432,-3.6473,-3.6456,-3.647,-3.648,-3.6481,-3.6483,-3.6468,-3.649,-3.6533,-3.6538,-3.6487,-3.6486,-3.6486,0,-3.6203,-3.6246,-3.6278,-3.6291,-3.6322,-3.6337,-3.635,-3.6373,-3.6389,-3.6413,-3.6424,-3.6451,-3.6465,-3.6486,-3.6499,-3.6489,-3.6538,-3.6527,-3.6544,-3.6544,-3.6553,-3.6552,-3.6597,-3.6565,-3.6565,-3.6565,-3.6565,0,-3.6239,-3.6266,-3.6287,-3.6307,-3.6337,-3.635,-3.638,-3.6393,-3.6414,-3.6436,-3.6442,-3.6463,-3.648,-3.6503,-3.6513,-3.6544,-3.6551,-3.6558,-3.656,-3.6556,-3.6555,-3.6564,-3.6562,-3.6566,-3.6566,-3.6565,-3.6565,0,-3.6265,-3.628,-3.6315,-3.6342,-3.6349,-3.637,-3.6393,-3.6412,-3.6425,-3.6454,-3.6461,-3.6481,-3.6509,-3.6524,-3.6559,-3.6566,-3.66,-3.6602,-3.6592,-3.6592,-3.6608,-3.6606,-3.666,-3.6667,-3.6631,-3.6631,-3.6632,0,-3.6286,-3.6307,-3.6336,-3.6351,-3.6365,-3.639,-3.6406,-3.642,-3.6437,-3.6466,-3.6482,-3.651,-3.6533,-3.6577,-3.6594,-3.6621,-3.6622,-3.664,-3.6626,-3.6622,-3.6621,-3.6619,-3.662,-3.6641,-3.6642,-3.6642,-3.6642,0,-3.6322,-3.6329,-3.6352,-3.6378,-3.6398,-3.642,-3.6441,-3.6453,-3.6471,-3.649,-3.6518,-3.6536,-3.6571,-3.6599,-3.6627,-3.6641,-3.6644,-3.6646,-3.6651,-3.6647,-3.664,-3.6642,-3.6596,-3.6645,-3.6644,-3.6644,-3.6644,-3.6644,-3.6345,-3.6363,-3.6386,-3.6412,-3.643,-3.645,-3.6469,-3.6484,-3.6508,-3.6537,-3.6545,-3.6574,-3.6597,-3.6635,-3.6651,-3.6674,-3.6671,-3.6678,-3.668,-3.6681,-3.6681,-3.6637,-3.6679,-3.6679,-3.6679,-3.6679,-3.6679,0,-3.638,-3.6395,-3.6419,-3.6448,-3.6469,-3.6471,-3.6494,-3.6511,-3.6537,-3.6559,-3.6581,-3.6613,-3.664,-3.666,-3.6688,-3.6702,-3.6705,-3.6709,-3.6707,-3.671,-3.6683,-3.6675,-3.6707,-3.6707,-3.6707,-3.6707,-3.6707,-3.6707,-3.64,-3.6431,-3.644,-3.648,-3.6495,-3.6524,-3.6537,-3.6555,-3.6572,-3.6608,-3.663,-3.6643,-3.6664,-3.6693,-3.6718,-3.6723,-3.6732,-3.6736,-3.6741,-3.6715,-3.6712,-3.6709,-3.6702,-3.6738,-3.6739,-3.6766,-3.6767,-3.6767]},{"header":{"parameterUnit":"m.s-1","parameterCategory":1,"la1":30.2991,"la2":30.254,"lo1":-89.0895,"lo2":-89.0444,"dy":0.0017,"dx":0.0017,"nx":28,"ny":28,"refTime":"2023-11-21T03:00:00:Z","depth":0,"parameterNumber":3,"parameterNumberName":"V-component_of_WINDS"},"data":[0,0,0,0,0,0,0,0,0,0,0,0,0,0,0,0,0,0,0,0,0,0,0,0,0,0,0,0,0,0,0,0,0,0,0,0,0,0,0,0,0,0,0,0,0,0,0,0,0,0,0,0,0,0,0,0,0,0,3.5833,3.5833,0,3.5808,3.5808,3.5807,3.5746,3.5745,3.5743,3.5742,3.5715,3.5715,3.5716,0,0,0,0,0,0,0,0,0,0,0,0,0,3.5832,3.5833,3.5833,3.5833,3.5833,3.5808,3.5807,3.5807,3.5746,3.5745,3.5743,3.5742,3.5715,3.5715,3.5716,0,0,0,0,0,0,0,0,0,0,0,0,0,3.5822,3.5833,3.5833,3.5799,3.5796,3.5808,3.5807,3.5807,3.5746,3.5745,3.5743,3.5741,3.5715,3.5715,3.5716,3.5759,0,0,3.5718,3.5718,0,0,0,0,0,0,0,0,3.5823,3.5822,3.5805,3.5802,3.5798,3.5778,3.5797,3.5791,3.5747,3.5765,3.5742,3.574,3.5737,3.5736,3.5736,3.5757,3.5756,3.5718,3.5719,3.5719,3.5719,0,0,0,0,0,0,0,3.5824,3.5823,3.5823,3.5805,3.5801,3.5786,3.5783,3.5796,3.5762,3.5764,3.5759,3.5757,3.5735,3.5735,3.5734,3.5756,3.5718,3.5719,3.5719,3.572,3.5817,3.5819,0,0,0,0,0,0,3.5829,3.5824,3.5824,3.5822,3.5806,3.5788,3.5784,3.5786,3.5762,3.5757,3.5759,3.5754,3.5735,3.5734,3.5733,3.5785,3.5719,3.572,3.572,3.5815,3.5817,3.582,0,0,0,0,0,0,3.5829,3.583,3.5825,3.5822,3.5821,3.579,3.5793,3.5787,3.5787,3.5758,3.5752,3.5764,3.5733,3.5732,3.5754,3.5783,3.572,3.5721,3.5812,3.5816,3.5819,3.5887,0,0,0,0,0,0,3.583,3.583,3.5845,3.5823,3.5821,3.5846,3.5795,3.5788,3.5788,3.5782,3.5762,3.5757,3.5732,3.5753,3.5755,3.5783,3.5721,3.5809,3.5814,3.5818,3.5882,3.5892,3.5901,0,0,0,0,0,3.583,3.5864,3.5846,3.5846,3.5839,3.5847,3.5846,3.5817,3.5791,3.5806,3.5789,3.5757,3.578,3.5756,3.5757,3.5786,3.5807,3.5813,3.5817,3.5878,3.589,3.5901,0,0,0,0,0,0,3.5888,3.586,3.584,3.5868,3.5861,3.5837,3.5855,3.583,3.5829,3.5824,3.5787,3.5783,3.5811,3.58,3.5775,3.5829,3.5789,3.5794,3.5835,3.5846,3.5855,3.5858,3.5722,0,0,0,0,0,3.5905,3.5914,3.5888,3.5916,3.5913,3.5886,3.5888,3.5866,3.5857,3.5854,3.5838,3.583,3.5836,3.584,3.5843,3.588,3.5877,3.5901,3.5911,3.5919,3.5924,3.5947,3.5959,3.5836,3.5836,3.5836,0,0,3.5938,3.5924,3.5931,3.5927,3.5919,3.5931,3.5883,3.5896,3.5905,3.5855,3.5876,3.5865,3.5854,3.5885,3.5898,3.5877,3.5957,3.5925,3.5931,3.5932,3.5953,3.5965,3.5975,3.5839,3.5839,3.5838,0,0,3.6005,3.5994,3.6017,3.6012,3.6001,3.5983,3.5989,3.597,3.5962,3.5982,3.5947,3.5957,3.5967,3.5962,3.5961,3.6033,3.6006,3.6035,3.6085,3.6108,3.6118,3.6126,3.6155,3.6165,3.604,3.6041,3.6041,0,3.6047,3.6063,3.6032,3.605,3.6051,3.6009,3.6034,3.6029,3.602,3.6022,3.6,3.6015,3.6004,3.6036,3.6054,3.6053,3.6061,3.6037,3.6119,3.6127,3.6134,3.6161,3.6172,3.6045,3.6044,3.6044,3.6043,0,3.6118,3.613,3.615,3.6145,3.6148,3.6169,3.6143,3.6151,3.613,3.6116,3.614,3.6127,3.6129,3.6135,3.6113,3.6165,3.6153,3.6125,3.6084,3.615,3.6175,3.6185,3.605,3.6049,3.6048,3.6047,0,0,3.6218,3.6199,3.6208,3.6207,3.6195,3.6204,3.6225,3.6228,3.6237,3.6233,3.6251,3.6263,3.6239,3.6238,3.6217,3.6237,3.63,3.6207,3.6206,3.6227,3.636,3.6383,3.6395,3.6282,3.6284,3.6285,3.6362,0,3.6283,3.6318,3.6293,3.6332,3.6345,3.6309,3.6327,3.6323,3.6311,3.6321,3.6308,3.6318,3.6283,3.6284,3.6302,3.6288,3.6326,3.6282,3.63,3.6301,3.6306,3.6407,3.643,3.6503,3.6371,3.6373,3.6374,0,3.6363,3.6366,3.6407,3.6397,3.6402,3.6419,3.6423,3.6433,3.6429,3.6419,3.6421,3.6396,3.6418,3.6379,3.641,3.6381,3.6387,3.6383,3.6385,3.6386,3.6342,3.6414,3.6525,3.6537,3.6388,3.6387,3.6386,0,3.6436,3.645,3.6478,3.6478,3.6466,3.648,3.6475,3.6469,3.6475,3.6479,3.6483,3.6489,3.6493,3.6499,3.6477,3.645,3.6513,3.6471,3.6508,3.6509,3.6523,3.6522,3.6639,3.6524,3.6524,3.6524,3.6524,0,3.6512,3.6539,3.6511,3.6528,3.6559,3.6532,3.6564,3.6556,3.6552,3.6568,3.6536,3.6553,3.6523,3.6537,3.652,3.6551,3.6552,3.6546,3.6542,3.655,3.6552,3.6554,3.655,3.6527,3.6526,3.6526,3.6525,0,3.6598,3.658,3.6608,3.6596,3.6594,3.6618,3.6608,3.6625,3.6613,3.6634,3.6638,3.6619,3.6634,3.6614,3.6626,3.6615,3.6659,3.6645,3.6661,3.6657,3.6697,3.6694,3.682,3.6837,3.671,3.6711,3.6712,0,3.6648,3.6669,3.6661,3.6671,3.6669,3.6684,3.6691,3.6666,3.6675,3.6675,3.6693,3.6706,3.6715,3.6742,3.6729,3.674,3.6728,3.6772,3.6729,3.6739,3.6732,3.6732,3.6736,3.6781,3.6782,3.6783,3.6784,0,3.6741,3.6733,3.6743,3.6753,3.6763,3.6769,3.6772,3.6782,3.6757,3.6769,3.6785,3.6793,3.6808,3.6823,3.6831,3.6827,3.6804,3.6798,3.6808,3.6817,3.6826,3.6825,3.6686,3.6795,3.6794,3.6793,3.6793,3.6792,3.6813,3.6832,3.683,3.6845,3.6846,3.6851,3.6868,3.6859,3.6873,3.6884,3.6869,3.6891,3.6891,3.69,3.69,3.6918,3.6899,3.6912,3.6916,3.692,3.6928,3.6823,3.6919,3.6919,3.6918,3.6918,3.6918,0,3.6906,3.6905,3.6919,3.6927,3.694,3.6917,3.6921,3.6934,3.6953,3.6955,3.6967,3.6988,3.7004,3.6994,3.7008,3.7024,3.7014,3.7029,3.7028,3.7029,3.6942,3.6933,3.7038,3.7038,3.7038,3.7038,3.7038,3.7037,3.6957,3.6989,3.6981,3.7015,3.7013,3.7035,3.704,3.7046,3.7048,3.7074,3.7087,3.7082,3.7081,3.7095,3.7109,3.7106,3.7114,3.7134,3.7127,3.7046,3.7034,3.7023,3.7015,3.7135,3.7135,3.7213,3.7214,3.7214]}]]